Location: Ajisawe
(8.4333°N, 4.3833°E)
Time: 15:32:03
(UTC+00:00)

Transit 2A Rocket - All Passes

Search period start: 23 April 2021 00:00
Search period end: 03 May 2021 00:00
Orbit: 594 x 908 km, 66.7° (Epoch: 22 April)

Date Brightness Start Highest point End Pass type
(mag) Time Alt. Az. Time Alt. Az. Time Alt. Az.
23 Apr - 01:00:54 10° NW 01:05:31 36° WSW 01:10:32 10° S night (unlit)
23 Apr - 11:55:23 10° SSE 11:58:56 19° ESE 12:02:16 10° ENE daylight
23 Apr - 13:37:24 10° WSW 13:41:13 22° WNW 13:44:50 10° NNW daylight
24 Apr - 00:17:56 10° NNW 00:22:56 78° WSW 00:28:27 10° SSE night (unlit)
24 Apr - 12:53:51 10° SW 12:58:42 50° WNW 13:03:09 10° N daylight
24 Apr - 23:35:34 10° N 23:40:24 49° ENE 23:45:41 10° SE night (unlit)
25 Apr - 01:21:57 10° W 01:22:49 10° WSW 01:23:42 10° WSW night (unlit)
25 Apr - 12:11:09 10° SSW 12:16:10 71° ESE 12:20:45 10° NNE daylight
25 Apr - 22:53:54 10° NNE 22:57:52 23° ENE 23:02:07 10° ESE night (unlit)
26 Apr - 00:36:12 10° WNW 00:40:11 23° WSW 00:44:27 10° SSW night (unlit)
26 Apr - 11:29:10 10° S 11:33:35 31° ESE 11:37:42 10° NE daylight
26 Apr - 13:13:34 10° W 13:15:51 13° WNW 13:18:04 10° NW daylight
26 Apr - 22:14:08 10° NE 22:15:18 11° ENE 22:16:29 10° E night (unlit)
26 Apr - 23:52:43 10° NW 23:57:35 47° WSW 00:02:55 10° S night (unlit)
27 Apr - 10:48:22 10° SE 10:50:59 14° ESE 10:53:29 10° ENE daylight
27 Apr - 12:29:03 10° SW 12:33:18 29° WNW 12:37:16 10° N daylight
27 Apr - 23:09:59 10° NNW 23:15:01 81° ENE 23:20:35 10° SSE night (unlit)
28 Apr - 11:45:50 10° SSW 11:50:47 67° WNW 11:55:18 10° NNE daylight
28 Apr - 22:27:50 10° N 22:32:29 38° ENE 22:37:33 10° SE night (unlit)
29 Apr - 00:12:08 10° WNW 00:14:53 14° WSW 00:17:44 10° SW night (unlit)
29 Apr - 11:03:22 10° S 11:08:14 52° ESE 11:12:41 10° NE daylight
29 Apr - 21:46:30 10° NNE 21:49:57 18° ENE 21:53:35 10° ESE night (unlit)
29 Apr - 23:27:48 10° NW 23:32:15 30° WSW 23:37:04 10° S night (unlit)
30 Apr - 10:21:42 10° SSE 10:25:38 23° ESE 10:29:19 10° ENE daylight
30 Apr - 12:04:43 10° WSW 12:07:55 18° WNW 12:10:58 10° NNW daylight
30 Apr - 22:44:38 10° NNW 22:49:40 63° WSW 22:55:12 10° S night (unlit)
01 May - 09:42:24 10° ESE 09:43:02 10° ESE 09:43:39 10° ESE daylight
01 May - 11:20:49 10° SW 11:25:23 39° WNW 11:29:37 10° N daylight
01 May - 22:02:06 10° N 22:07:07 62° ENE 22:12:37 10° SSE night (unlit)
02 May - 10:37:53 10° SSW 10:42:51 90° ESE 10:47:24 10° NNE daylight
02 May - 21:20:11 10° N 21:24:35 29° ENE 21:29:19 10° SE night (unlit)
02 May - 23:03:19 10° WNW 23:06:56 19° WSW 23:10:46 10° SSW night (unlit)
